www.pogodaiklimat.ru

Погода и климат >> Архив погоды >> Австралия >> Kalumburu


ПОГОДА в Kalumburu

  • Прогноз погоды в Kalumburu
  • Монитор погоды в Kalumburu
  • Климат города

АРХИВ ПОГОДЫ в Kalumburu

Время (UTC), дата Ветер
(напр.,м/с)
 
Видим.   Явления Облачность Т
(С)
Тd
(С)
f
(%)
Тe
(С)
Тes
(С)
Комфортность P
(гПа)
Po
(гПа)
Тmin
(С)
Tmax
(С)
R
(мм)
R24
(мм)
S
(см)
22 9.07 ЮВ 2 н/о н/о +16.3 +5.9 50 +17 +17 1015.0 1012.2
00 10.07 В 5 н/о н/о +24.7 +2.2 23 +24 +24 комфорт 1015.6 1012.8
01 10.07 В 5 н/о н/о +27.6 +3.3 21 +26 +26 жарко 1015.7 1012.9 +12.5
03 10.07 В 5 н/о н/о +31.3 +4.9 19 +29 +29 жарко 1014.2 1011.4
04 10.07 В 5 н/о н/о +31.2 +4.9 19 +29 +29 жарко 1013.3 1010.5
06 10.07 В 4 н/о н/о +31.7 +6.0 20 +30 +30 жарко 1012.0 1009.2
07 10.07 В 4 н/о н/о +31.4 +6.5 21 +30 +30 жарко 1011.9 1009.1
09 10.07 В 3 н/о н/о +27.4 +6.8 27 +27 +27 жарко 1012.7 1009.9
10 10.07 СВ 2 н/о н/о +24.9 +7.1 32 +25 +25 комфорт 1013.5 1010.7
12 10.07 Ю 2 н/о н/о +19.7 +9.9 53 +22 +22 комфорт 1014.7 1011.9
13 10.07 ЮВ 2 н/о н/о +19.6 +9.2 51 +21 +21 комфорт 1015.2 1012.4 +33.0
15 10.07 Ю 2 н/о н/о +15.7 +10.9 73 +16 +16 1015.3 1012.5
16 10.07 штиль 0 н/о н/о +14.8 +9.2 69 +15 +15 1015.4 1012.6
18 10.07 Ю 2 н/о н/о +12.8 +9.8 82 +12 +12 1014.8 1012.0
19 10.07 Ю 2 н/о н/о +14.2 +9.6 74 +14 +14 1014.9 1012.1
21 10.07 Ю 3 н/о н/о +17.2 +10.1 63 +17 +17 1015.2 1012.4
22 10.07 Ю 2 н/о н/о +16.2 +10.1 67 +16 +16 1015.4 1012.6
00 11.07 Ю 2 н/о н/о +24.2 +6.0 31 +24 +24 комфорт 1016.0 1013.2
01 11.07 ЮВ 4 н/о н/о +27.2 +3.0 21 +26 +26 жарко 1016.0 1013.2 +12.7
03 11.07 ЮВ 4 н/о н/о +31.0 +2.3 16 +28 +28 жарко 1014.6 1011.8
04 11.07 В 4 н/о н/о +31.6 +2.7 16 +29 +29 жарко 1013.6 1010.8
06 11.07 Ю 4 н/о н/о +31.5 +1.8 15 +29 +29 жарко 1012.2 1009.4
07 11.07 Ю 3 н/о н/о +31.2 +2.4 16 +29 +29 жарко 1011.7 1008.9
09 11.07 ЮВ 2 н/о н/о +27.3 +3.1 21 +26 +26 жарко 1012.3 1009.5
10 11.07 ЮВ 1 н/о н/о +21.6 +4.2 32 +22 +22 комфорт 1012.9 1010.1
12 11.07 штиль 0 н/о н/о +18.9 +8.6 51 +19 +19 1014.4 1011.6
13 11.07 штиль 0 н/о н/о +15.8 +9.2 65 +16 +16 1014.7 1011.9 +32.7
15 11.07 штиль 0 н/о н/о +12.7 +8.8 77 +12 +12 1015.1 1012.3
16 11.07 штиль 0 н/о н/о +11.6 +8.1 79 +11 +11 1015.1 1012.3
18 11.07 ЮЗ 1 н/о н/о +10.2 +6.9 80 +10 +10 1014.4 1011.6
19 11.07 штиль 0 н/о н/о +10.2 +7.6 84 +10 +10 1014.4 1011.6
21 11.07 Ю 2 н/о н/о +9.7 +7.5 86 +8 +8 1014.3 1011.5
22 11.07 Ю 2 н/о н/о +10.1 +8.0 87 +9 +9 1014.8 1012.0
00 12.07 Ю 2 н/о н/о +21.0 +6.5 39 +23 +23 комфорт 1016.2 1013.4
01 12.07 ЮВ 4 н/о н/о +26.5 +0.3 18 +25 +25 комфорт 1016.1 1013.3 +9.1
03 12.07 В 4 н/о н/о +30.4 +0.9 15 +28 +28 жарко 1014.2 1011.4
04 12.07 ЮВ 3 н/о н/о +31.2 +0.6 14 +28 +28 жарко 1013.3 1010.5
06 12.07 ЮВ 3 н/о н/о +31.5 +0.8 14 +29 +29 жарко 1011.2 1008.4
07 12.07 ЮВ 3 н/о н/о +31.3 +0.6 14 +28 +28 жарко 1010.9 1008.1
09 12.07 Ю 1 н/о н/о +26.4 +1.7 20 +25 +25 комфорт 1011.2 1008.4
10 12.07 З 2 н/о н/о +22.8 +10.6 46 +25 +25 комфорт 1012.0 1009.2
12 12.07 Ю 2 н/о н/о +17.4 +10.1 62 +18 +18 1013.6 1010.8
13 12.07 З 1 н/о н/о +14.9 +7.9 63 +16 +16 1014.0 1011.2 +32.7
15 12.07 штиль 0 н/о н/о +11.6 +7.7 77 +11 +11 1014.8 1012.0
16 12.07 штиль 0 н/о н/о +10.5 +6.8 78 +10 +10 1014.7 1011.9
18 12.07 В 1 н/о н/о +9.0 +6.6 85 +9 +9 1014.1 1011.3
19 12.07 Ю 2 н/о н/о +8.4 +6.2 86 +7 +7 1013.6 1010.8
21 12.07 штиль 0 н/о н/о +7.9 +6.2 89 +7 +7 1013.7 1010.9
22 12.07 Ю 2 н/о н/о +7.8 +6.1 89 +6 +6 1014.0 1011.2
00 13.07 ЮВ 2 н/о н/о +19.6 +10.6 56 +22 +22 комфорт 1015.1 1012.3
01 13.07 Ю 3 н/о н/о +25.1 +6.8 31 +25 +25 комфорт 1015.0 1012.2 +7.6
03 13.07 ЮВ 3 н/о н/о +29.7 +0.3 15 +27 +27 жарко 1013.5 1010.7
04 13.07 ЮВ 4 н/о н/о +30.9 -0.7 13 +28 +28 жарко 1012.5 1009.7
06 13.07 В 2 н/о н/о +31.8 -1.1 12 +28 +28 жарко 1010.8 1008.0
07 13.07 В 3 н/о н/о +31.5 -0.2 13 +28 +28 жарко 1010.5 1007.7
09 13.07 С 3 н/о н/о +25.5 +5.7 28 +25 +25 комфорт 1011.5 1008.7
10 13.07 СЗ 2 н/о н/о +22.2 +13.3 57 +25 +25 комфорт 1012.1 1009.3
12 13.07 ЮВ 2 н/о н/о +18.0 +10.6 62 +19 +19 1013.6 1010.8
13 13.07 штиль 0 н/о н/о +15.6 +9.5 67 +15 +15 1014.2 1011.4 +32.9
15 13.07 штиль 0 н/о н/о +12.8 +8.5 75 +12 +12 1014.4 1011.6
16 13.07 штиль 0 н/о н/о +11.5 +8.5 82 +11 +11 1014.2 1011.4
18 13.07 Ю 1 н/о н/о +10.3 +8.2 87 +11 +11 1013.5 1010.7
19 13.07 штиль 0 н/о н/о +9.9 +7.8 87 +9 +9 1013.1 1010.3
21 13.07 Ю 1 н/о н/о +9.3 +6.7 84 +10 +10 1013.4 1010.6
22 13.07 Ю 2 н/о н/о +11.0 +8.6 85 +10 +10 1013.8 1011.0
00 14.07 Ю 2 н/о н/о +20.2 +9.7 51 +22 +22 комфорт 1014.9 1012.1
01 14.07 Ю 3 н/о н/о +25.7 +7.8 32 +26 +26 жарко 1014.6 1011.8 +9.3
03 14.07 В 4 н/о н/о +30.8 +2.1 16 +28 +28 жарко 1012.9 1010.1
04 14.07 В 3 н/о н/о +32.0 +3.1 16 +29 +29 жарко 1011.5 1008.7
06 14.07 СВ 3 н/о н/о +32.4 +1.5 14 +29 +29 жарко 1009.8 1007.0
07 14.07 В 2 н/о н/о +32.2 +1.3 14 +29 +29 жарко 1009.5 1006.7
09 14.07 С 4 н/о н/о +26.7 +3.2 22 +25 +25 комфорт 1010.4 1007.6
10 14.07 штиль 0 н/о н/о +21.9 +9.4 45 +23 +23 комфорт 1011.2 1008.4
12 14.07 В 2 н/о н/о +17.4 +11.2 67 +18 +18 1012.9 1010.1
13 14.07 Ю 2 н/о н/о +17.6 +12.3 71 +18 +18 1013.2 1010.4 +33.2
15 14.07 Ю 2 н/о н/о +13.7 +10.1 79 +13 +13 1012.9 1010.1
16 14.07 ЮВ 1 н/о н/о +13.0 +10.5 85 +13 +13 1012.7 1009.9
18 14.07 штиль 0 н/о н/о +12.4 +10.3 87 +12 +12 1012.1 1009.3
19 14.07 штиль 0 н/о н/о +11.6 +9.7 88 +11 +11 1011.9 1009.1
21 14.07 Ю 2 н/о н/о +12.6 +10.3 86 +12 +12 1012.4 1009.6
22 14.07 штиль 0 н/о н/о +12.2 +10.1 87 +12 +12 1013.3 1010.5
00 15.07 Ю 3 н/о н/о +21.4 +12.0 55 +24 +24 комфорт 1014.6 1011.8
01 15.07 Ю 3 н/о н/о +25.4 +11.2 41 +27 +27 жарко 1014.5 1011.7 +11.6
03 15.07 Ю 2 н/о н/о +30.5 +5.0 20 +29 +29 жарко 1013.2 1010.4
04 15.07 СЗ 2 н/о н/о +32.0 +4.7 18 +30 +30 жарко 1012.3 1009.5
06 15.07 С 3 н/о н/о +32.6 +4.4 17 +30 +30 жарко 1010.6 1007.8
07 15.07 С 5 н/о н/о +31.4 +6.5 21 +30 +30 жарко 1010.2 1007.4
09 15.07 С 3 н/о н/о +25.5 +13.0 46 +27 +27 жарко 1011.5 1008.7
10 15.07 СЗ 3 н/о н/о +23.1 +10.9 46 +25 +25 комфорт 1012.1 1009.3
12 15.07 штиль 0 н/о н/о +18.8 +13.9 73 +20 +20 1013.4 1010.6
13 15.07 штиль 0 н/о н/о +16.8 +12.9 78 +17 +17 1013.6 1010.8 +33.3
15 15.07 штиль 0 н/о н/о +14.7 +12.2 85 +14 +14 1013.7 1010.9
16 15.07 штиль 0 н/о н/о +13.9 +11.9 88 +13 +13 1013.8 1011.0
18 15.07 штиль 0 н/о н/о +12.8 +11.2 90 +12 +12 1013.2 1010.4
19 15.07 штиль 0 н/о н/о +12.0 +10.4 90 +11 +11 1013.1 1010.3
21 15.07 Ю 2 н/о н/о +11.3 +9.9 91 +10 +10 1013.4 1010.6
22 15.07 Ю 1 н/о н/о +11.0 +9.6 91 +12 +12 1013.8 1011.0
00 16.07 Ю 2 н/о н/о +20.0 +12.5 62 +22 +22 комфорт 1014.9 1012.1
01 16.07 Ю 2 н/о н/о +25.4 +10.8 40 +26 +26 жарко 1014.7 1011.9 +10.7
03 16.07 З 2 н/о н/о +31.4 +6.5 21 +30 +30 жарко 1013.0 1010.2
04 16.07 СВ 3 н/о н/о +32.7 +1.7 14 +30 +30 жарко 1011.6 1008.8
06 16.07 СВ 2 н/о н/о +33.5 +3.3 15 +31 +31 жарко 1009.8 1007.0
07 16.07 С 6 н/о н/о +31.6 +5.2 19 +30 +30 жарко 1009.6 1006.8
09 16.07 С 4 н/о н/о +25.8 +13.0 45 +28 +28 жарко 1010.7 1007.9
10 16.07 С 3 н/о н/о +23.9 +4.8 29 +24 +24 комфорт 1011.5 1008.7
12 16.07 СЗ 1 н/о н/о +18.7 +6.5 45 +21 +21 комфорт 1013.2 1010.4
13 16.07 штиль 0 н/о н/о +15.3 +7.3 59 +15 +15 1013.7 1010.9 +34.1
15 16.07 Ю 1 н/о н/о +12.8 +8.1 73 +14 +14 1013.6 1010.8
16 16.07 штиль 0 н/о н/о +12.2 +8.1 76 +12 +12 1013.6 1010.8
18 16.07 штиль 0 н/о н/о +10.7 +7.9 83 +10 +10 1013.0 1010.2
19 16.07 Ю 1 н/о н/о +10.2 +7.8 85 +11 +11 1012.8 1010.0
21 16.07 Ю 2 н/о н/о +11.5 +9.6 88 +11 +11 1013.0 1010.2

 

Местоположение метеостанции Kalumburu (Западная Австралия, Австралия): широта -14.30 долгота 126.65 высота над уровнем моря 24 м.

В архиве по умолчанию представлена погода в Kalumburu за последнюю неделю. Архивные данные за месяц целиком и за предыдущие месяцы, начиная с января 2011 года, Вы можете получить, выбрав интересующий диапазон дат из раскрывающегося списка и нажав кнопку "Ввод!".


*Определитесь, кто Вы:
робот инопланетянин человек

Внимание! Время в таблицах - всемирное. Для получения местного времени необходимо прибавить поправку, которая в Kalumburu равна 8 ч.

Смотрите также архив погоды в соседних городах и на ближайших метеорологических станциях:

Погода в Truscott (Западная Австралия, Австралия) (38 км)
Погода в Troughton Island (Западная Австралия, Австралия) (82 км)
Погода в Wyndham Aero (Западная Австралия, Австралия) (209 км)
Погода в Kununurra (Западная Австралия, Австралия) (276 км)
Погода в Port Keats Aero (Северная территория, Австралия) (310 км)
Погода в Argyle Aero (Западная Австралия, Австралия) (323 км)
Погода в Browse Island (Западная Австралия, Австралия) (335 км)
Погода в Adele Island (Западная Австралия, Австралия) (400 км)
Погода в Dum In Mirrie (Северная территория, Австралия) (443 км)
Погода в Fitzroy Crossing Aero (Западная Австралия, Австралия) (447 км)

Пояснения к столбцам:

Ветер - указаны скорость ветра в м/с - средняя за 10 мин, порывы в срок и между сроками (в фигурных скобках) и направление, откуда дует ветер: С - северный, СВ - северо-восточный, В - восточный, ЮВ - юго-восточный, Ю - южный, ЮЗ - юго-западный, З - западный, СЗ - северо-западный.
Видимость - горизонтальная дальность видимости в метрах или километрах. При видимости от 1 до 10 км при отсутствии осадков обычно наблюдается дымка, при ухудшении видимости до 1 км и менее - туман. В сухую погоду видимость может ухудшаться дымом, пылью или мглою.
Явления - указаны атмосферные явления, наблюдавшиеся в срок или в последний час перед сроком; фигурными скобками обозначены явления, наблюдавшиеся между сроками (за 1-3 часа до срока); квадратными скобками обозначены град или гололедные отложения с указанием их диаметра в мм.
Облачность - указаны через наклонную черту общая и нижняя облачность в баллах и высота нижней границы облаков в метрах; квадратными скобками обозначены формы облаков: Ci - перистые, Cs - перисто-слоистые, Cc - перисто-кучевые, Ac - высококучевые, As - высокослоистые, Sc - слоисто-кучевые, Ns - слоисто-дождевые, Cu - кучевые, Cb - кучево-дождевые. Подробнее классификацию облаков см. в Атласе облаков (PDF).
T - Температура воздуха - температура, измеренная на высоте 2 м над землей.
Td - Температура точки росы - температура, при понижении до которой содержащийся в воздухе водяной пар достигнет насыщения.
f - Относительная влажность воздуха - влажноcть воздуха, измеренная на высоте 2 м над землей.
Te - Эффективная температура - температура, которую ощущает одетый по сезону человек в тени. Характеристика душности погоды. При расчете учитывается влияние влажности воздуха и скорости ветра на теплоощущения человека.
Tes - Эффективная температура на солнце - температура, которую ощущает человек, с поправкой на солнечный нагрев. Характеристика знойности погоды. Зависит от высоты солнца над горизонтом, облачности и скорости ветра. Ночью, в пасмурную погоду, а также при ветре 12 м/с и более поправка равна нулю.
P - Атмосферное давление - приведенное к уровню моря атмосферное давление.
Po - Атмосферное давление - измеренное на уровне метеостанции атмосферное давление.
Tmin - Минимальная температура - минимум температуры воздуха на высоте 2 м над землей.
Tmax - Максимальная температура - максимум температуры воздуха на высоте 2 м над землей.
R - Количество осадков - Количество выпавших осадков за период времени, мм. При наведении курсора мыши на число - период времени, за который выпало указанное количество осадков.
R24 - Количество осадков - Количество выпавших осадков за 24 часа, мм.
S - Снежный покров - Высота снежного покрова, см. При наведении курсора мыши на число - состояние снежного покрова и степень покрытия местности в баллах.